Weather in Leninsk-Kuznetskiy

Russia / Kemerovo Oblast     54°39′48″N   86°09′44″E
temp.,
°C
wind,
m/s
gust,
m/s
humid.,
%
clouds,
%
prec.,
mm/h
press.,
hPa
HPBL,
m
18 may, tue
tue1801:00+12ssw2284100 0.0 101224
04:00+11s48855 0.0 1009154
07:00+14ssw61386100 0.8 1006424
10:00+19wsw81569100 1.4 1002956
13:00+22wnw101550100 1.4 10022213
16:00+19nnw685320 0.2 10041483
19:00+17nnw796811 0.4 10061012
22:00+11nne479335 0.0 1007270
19 may, wed
wed1901:00+10nne2490100 0.0 1006175
04:00+9nne2292100 0.8 1004157
07:00+7n51096100 5.7 1004390
10:00+8nne81287100 5.4 1004624
13:00+10nne81155100 5.4 10061154
16:00+13n794096 0.0 10062049
19:00+10n795140 0.0 10081421
22:00+6n51160100 0.0 1010400
20 may, thu
thu2001:00+4n5125899 0.0 1010394
04:00+3n51163100 0.0 1011404
07:00+2n59620 0.0 1012377
10:00+6n67445 0.0 10122080
13:00+8n6637100 0.0 10122662
16:00+8n774093 0.1 10132139
19:00+7nnw57383 0.1 10152388
22:00+4nnw496672 0.1 1017357
21 may, fri
fri2101:00+3nnw4776100 0.1 1018590
04:00+3nnw349287 0.0 1019331
07:00+3nnw358897 0.1 1022302
10:00+8nw4666100 0.0 10231009
13:00+12nw574096 0.0 10232349
16:00+13nw673895 0.0 10232174
19:00+12nw5748100 0.0 1025897
22:00+8w4963100 0.0 1026181
22 may, sat
sat2201:00+7sw4961100 0.0 1026187
04:00+7sw51355100 0.0 1025329
07:00+8w61263100 0.0 10261085
10:00+5sw91591100 4.2 10241033
13:00+6sw81588100 12.1 1022998
16:00+7sw81485100 0.3 1022733
19:00+8ssw8158778 1.4 1021406
22:00+9s5108483 0.3 1022311